Regional Weather Roundup
Issued by NWS Northern Indiana

Home | Current Version | Previous Version | Graphics & Text | Print | Product List | Glossary On
Versions: 1 2 3 4 5 6 7 8 9 10 11 12 13 14 15 16 17 18 19 20 21 22 23 24 25 26 27 28 29 30 31 32 33 34 35 36 37 38 39 40 41 42 43 44 45 46 47 48 49 50
621
ASUS43 KIWX 090710
RWRIWX

KIWX WEATHER ROUNDUP
NATIONAL WEATHER SERVICE NORTHERN INDIANA
200 AM EST TUE FEB 09 2016

NOTE: "FAIR" INDICATES FEW OR NO CLOUDS BELOW 12,000 FEET WITH NO
SIGNIFICANT WEATHER AND/OR OBSTRUCTIONS TO VISIBILITY.

* THESE STATIONS ARE NOT UNDER NWS QUALITY CONTROL. THEY ALSO MAY NOT
  REPORT WEATHER SUCH AS PRECIPITATION OR FOG.

INZ001>027-090800-
NORTHERN INDIANA

CITY           SKY/WX    TMP DP  RH WIND       PRES   REMARKS
GARY*          FLURRIES  24  18  78 W13       29.73F WCI  13
VALPARAISO     LGT SNOW  24  20  84 NW9       29.70F WCI  14
MICHIGAN CITY* LGT SNOW  27  25  93 NW6       29.70F WCI  20
LAPORTE*       CLOUDY    26  26  96 W9        29.69S WCI  17
KNOX*          CLOUDY    27  23  86 W10       29.69F WCI  17
SOUTH BEND     LGT SNOW  25  24  96 W16       29.65F FOG     WCI  12
GOSHEN         CLOUDY    27  23  85 W14       29.64F WCI  16
MONTICELLO*    CLOUDY    24  17  74 W12G17    29.72S WCI  13
LOGANSPORT*    FLURRIES  25  19  80 W10       29.71F WCI  15
ROCHESTER*     LGT SNOW  28  21  74 W9        29.68F WCI  20
WARSAW*        CLOUDY    27  23  86 W10       29.65F WCI  17
ANGOLA*        CLOUDY    27  25  93 W8        29.59F WCI  18
FORT WAYNE     CLOUDY    29  22  75 W14       29.66F WCI  18
HUNTINGTON*    CLOUDY    24  19  81 W14       29.66F WCI  12
PERU/GRISSOM   MIX PCPN  24  21  87 W15       29.67F WCI  11
MARION*        CLOUDY    24  17  74 W13       29.69F HAZE    WCI  12

$$
INZ028>050-090800-
CENTRAL INDIANA

CITY           SKY/WX    TMP DP  RH WIND       PRES   REMARKS
LAFAYETTE      CLOUDY    21  16  81 W14G22    29.74F WCI   8
KOKOMO*        CLOUDY    25  19  80 W17       29.69F WCI  11
MUNCIE*        LGT SNOW  24  20  84 W10G21    29.68F FOG     WCI  14
INDIANAPOLIS   FLURRIES  22  16  78 W13       29.72F WCI  10

$$
MIZ043>046-050>051-056>058-064>065-071>073-077>080-090800-
SOUTHWEST LOWER MICHIGAN

CITY           SKY/WX    TMP DP  RH WIND       PRES   REMARKS
BATTLE CREEK   CLOUDY    30  27  88 SW8       29.58F WCI  22
BENTON HARBOR  SNOW      31  28  89 NW12G25   29.63F VSB 1/2 WCI  22
COLDWATER*     CLOUDY    29  28  94 W9        29.59F WCI  20
HILLSDALE*     CLOUDY    28  27  96 W12       29.56F WCI  18
HOLLAND        CLOUDY    31  28  89 NW10      29.61S WCI  22
GRAND RAPIDS   CLOUDY    33  30  88 NW8       29.58F WCI  26
KALAMAZOO      CLOUDY    30  26  85 SW6       29.58F WCI  24
STURGIS*       LGT SNOW  28  25  91 W12       29.59F WCI  17
THREE RIVERS*  LGT SNOW  29  27  90 W5        29.60F WCI  24

$$
OHZ001>008-015>018-024>025-090800-
NORTHWEST OHIO

CITY           SKY/WX    TMP DP  RH WIND       PRES   REMARKS
DEFIANCE       CLOUDY    31  24  75 W9        29.62F WCI  23
FINDLAY        CLOUDY    31  26  82 W15       29.60F WCI  20
TOLEDO EXPRESS CLOUDY    30  27  88 W14       29.58F WCI  19
TOLEDO METCALF CLOUDY    33  27  78 W13       29.59F WCI  24
LIMA           CLOUDY    27  24  89 W17       29.61F WCI  14

$$
AND FOR LAKE MICHIGAN COASTAL AND OPEN LAKE BUOY OBSERVATIONS

STATION/POSITION TEMP    WIND        PRES    VSBY  WAVE
                 AIR SEA DIR/SP/G                  HT/PER
                 (F)     (DEG/KT/KT) (MB)    (MI)  (FT/S)
CALUMET HARBOR    22     270/  9/ 14 1006.3F
MICHIGAN CITY     25     250/ 20/ 23   N/A
BURNS HARBOR      25     300/ 16/ 21 1006.8F
SAINT JOSEPH      30     270/ 16/ 22 1005.1F

$$
&&




USA.gov is the U.S. government's official web portal to all federal, state and local government web resources and services.